[[{"header":{"parameterUnit":"m.s-1","parameterCategory":1,"la1":30.2991,"la2":30.254,"lo1":-89.0895,"lo2":-89.0444,"dy":0.0017,"dx":0.0017,"nx":28,"ny":28,"refTime":"2024-05-31T03:00:00:Z","depth":0,"parameterNumber":2,"parameterNumberName":"U-component_of_WINDS"},"data":[0,0,0,0,0,0,0,0,0,0,0,0,0,0,0,0,0,0,0,0,0,0,0,0,0,0,0,0,0,0,0,0,0,0,0,0,0,0,0,0,0,0,0,0,0,0,0,0,0,0,0,0,0,0,0,0,0,0,-5.0266,-5.0267,0,-5.0318,-5.0318,-5.0319,-5.0243,-5.0241,-5.0238,-5.0235,-5.029,-5.0294,-5.0298,0,0,0,0,0,0,0,0,0,0,0,0,0,-5.0106,-5.011,-5.0266,-5.0267,-5.0267,-5.0317,-5.0318,-5.0319,-5.0244,-5.024,-5.0237,-5.0234,-5.0289,-5.0293,-5.0298,0,0,0,0,0,0,0,0,0,0,0,0,0,-5.0169,-5.0111,-5.0266,-5.0236,-5.0234,-5.0317,-5.0318,-5.0319,-5.0244,-5.024,-5.0236,-5.0233,-5.0287,-5.0293,-5.0299,-5.0415,0,0,-5.0317,-5.0319,0,0,0,0,0,0,0,0,-5.0165,-5.0175,-5.024,-5.0238,-5.0236,-5.027,-5.0282,-5.0351,-5.0245,-5.024,-5.0235,-5.0231,-5.0287,-5.0292,-5.0311,-5.0417,-5.0419,-5.0317,-5.0321,-5.0323,-5.0325,0,0,0,0,0,0,0,-5.0161,-5.0172,-5.0286,-5.0241,-5.0238,-5.0221,-5.0225,-5.0295,-5.0285,-5.0241,-5.0235,-5.0242,-5.0285,-5.0305,-5.0311,-5.042,-5.0317,-5.0322,-5.0326,-5.0328,-5.0625,-5.0629,0,0,0,0,0,0,-5.016,-5.0169,-5.0285,-5.0288,-5.019,-5.0227,-5.0232,-5.0263,-5.0284,-5.0284,-5.0246,-5.0238,-5.0297,-5.0305,-5.0313,-5.0449,-5.0323,-5.0329,-5.0332,-5.0621,-5.0626,-5.0631,0,0,0,0,0,0,-5.0157,-5.0171,-5.0283,-5.0227,-5.024,-5.0234,-5.0269,-5.0266,-5.0286,-5.0288,-5.0286,-5.0268,-5.0294,-5.0305,-5.039,-5.045,-5.0331,-5.0337,-5.0616,-5.0623,-5.0629,-5.0723,0,0,0,0,0,0,-5.0153,-5.017,-5.0213,-5.0229,-5.0243,-5.0358,-5.0273,-5.027,-5.0296,-5.0288,-5.0308,-5.0308,-5.0292,-5.0381,-5.0396,-5.0456,-5.0341,-5.061,-5.0619,-5.0626,-5.0714,-5.0732,-5.0747,0,0,0,0,0,-5.0147,-5.0238,-5.0216,-5.023,-5.0297,-5.0361,-5.037,-5.0349,-5.0302,-5.0345,-5.0347,-5.0307,-5.0442,-5.0391,-5.0406,-5.0469,-5.0606,-5.0616,-5.0626,-5.0707,-5.0729,-5.0747,0,0,0,0,0,0,-5.023,-5.0239,-5.0215,-5.0313,-5.0337,-5.0348,-5.0402,-5.0372,-5.041,-5.04,-5.0374,-5.0379,-5.047,-5.0479,-5.0421,-5.0583,-5.0516,-5.053,-5.0573,-5.0593,-5.0609,-5.0604,-5.0346,0,0,0,0,0,-5.026,-5.0311,-5.0317,-5.0403,-5.0417,-5.0408,-5.0435,-5.0418,-5.0441,-5.0451,-5.0458,-5.0484,-5.0532,-5.0564,-5.0608,-5.0717,-5.072,-5.0768,-5.0785,-5.0798,-5.0809,-5.0867,-5.0888,-5.0663,-5.0663,-5.0663,0,0,-5.0321,-5.0333,-5.0367,-5.042,-5.0436,-5.049,-5.0417,-5.0477,-5.0517,-5.046,-5.054,-5.0548,-5.0574,-5.0672,-5.0715,-5.0682,-5.0872,-5.0811,-5.0821,-5.0825,-5.0879,-5.09,-5.0919,-5.067,-5.0669,-5.0668,0,0,-5.046,-5.0475,-5.0548,-5.0566,-5.0592,-5.0586,-5.0605,-5.0622,-5.0624,-5.0704,-5.0663,-5.0711,-5.0795,-5.0815,-5.0837,-5.0988,-5.0953,-5.1004,-5.1087,-5.1144,-5.1162,-5.1177,-5.1229,-5.1248,-5.1015,-5.1015,-5.1016,0,-5.0533,-5.0612,-5.059,-5.0653,-5.0677,-5.063,-5.0704,-5.0724,-5.0763,-5.0782,-5.0745,-5.0849,-5.0864,-5.0965,-5.1002,-5.1022,-5.1042,-5.0999,-5.1161,-5.1176,-5.119,-5.124,-5.126,-5.1021,-5.102,-5.102,-5.1019,0,-5.07,-5.0755,-5.0812,-5.085,-5.0882,-5.0951,-5.094,-5.0976,-5.0957,-5.0956,-5.1039,-5.1056,-5.1102,-5.1126,-5.1108,-5.1226,-5.1204,-5.1165,-5.1096,-5.1218,-5.1263,-5.1282,-5.1029,-5.1027,-5.1026,-5.1024,0,0,-5.0887,-5.0915,-5.0936,-5.0953,-5.098,-5.1023,-5.1091,-5.1137,-5.1167,-5.1198,-5.1253,-5.1327,-5.1291,-5.1315,-5.13,-5.1351,-5.1468,-5.1305,-5.1305,-5.1332,-5.1597,-5.1624,-5.1646,-5.1447,-5.145,-5.1453,-5.1594,0,-5.1024,-5.1138,-5.1122,-5.1233,-5.1284,-5.1242,-5.1302,-5.1325,-5.1327,-5.1372,-5.1375,-5.1426,-5.1376,-5.139,-5.1439,-5.1443,-5.152,-5.1433,-5.1497,-5.15,-5.1488,-5.167,-5.1698,-5.183,-5.1612,-5.1615,-5.1617,0,-5.1197,-5.1233,-5.1349,-5.1369,-5.139,-5.1443,-5.1484,-5.1528,-5.1555,-5.1553,-5.1582,-5.1559,-5.1628,-5.1562,-5.1657,-5.1598,-5.1625,-5.1631,-5.1636,-5.1637,-5.1563,-5.1674,-5.1872,-5.189,-5.1646,-5.1643,-5.1641,0,-5.1319,-5.1397,-5.1476,-5.1493,-5.1519,-5.1557,-5.157,-5.1594,-5.1623,-5.166,-5.1678,-5.1724,-5.1748,-5.1785,-5.1774,-5.1728,-5.1871,-5.1805,-5.1871,-5.1871,-5.1899,-5.1897,-5.21,-5.1923,-5.1922,-5.1922,-5.1922,0,-5.147,-5.1542,-5.1532,-5.158,-5.166,-5.1643,-5.1723,-5.1731,-5.1753,-5.1803,-5.1771,-5.1819,-5.1805,-5.1852,-5.1846,-5.1925,-5.1937,-5.1937,-5.1933,-5.1937,-5.1937,-5.1951,-5.194,-5.1927,-5.1926,-5.1925,-5.1924,0,-5.1618,-5.1614,-5.1697,-5.1716,-5.1723,-5.1781,-5.1797,-5.1843,-5.1844,-5.1908,-5.1923,-5.1924,-5.1979,-5.1974,-5.2036,-5.2032,-5.2129,-5.2116,-5.2119,-5.2115,-5.218,-5.2173,-5.2396,-5.2424,-5.2232,-5.2234,-5.2235,0,-5.1713,-5.1767,-5.1792,-5.1823,-5.1839,-5.1889,-5.1919,-5.1906,-5.1938,-5.1975,-5.2017,-5.2069,-5.2109,-5.2199,-5.2207,-5.2254,-5.2241,-5.2316,-5.2247,-5.225,-5.2239,-5.2234,-5.2239,-5.2328,-5.233,-5.2332,-5.2334,0,-5.1881,-5.1877,-5.192,-5.1964,-5.2,-5.2034,-5.2065,-5.2093,-5.2083,-5.2122,-5.2177,-5.2209,-5.2273,-5.2324,-5.237,-5.2385,-5.2358,-5.2356,-5.2373,-5.2376,-5.2374,-5.2373,-5.2152,-5.235,-5.2348,-5.2347,-5.2346,-5.2346,-5.2003,-5.2049,-5.2074,-5.2124,-5.2146,-5.2177,-5.2221,-5.2228,-5.2274,-5.2324,-5.2315,-5.2377,-5.2405,-5.2464,-5.2484,-5.2533,-5.2506,-5.2531,-5.2537,-5.2543,-5.2549,-5.237,-5.2542,-5.2541,-5.2541,-5.2541,-5.254,0,-5.2167,-5.2182,-5.2228,-5.2272,-5.2312,-5.2285,-5.2319,-5.2354,-5.2409,-5.2437,-5.2478,-5.2543,-5.2594,-5.2607,-5.2657,-5.2694,-5.2683,-5.2707,-5.2702,-5.2706,-5.2572,-5.255,-5.2715,-5.2715,-5.2715,-5.2715,-5.2715,-5.2715,-5.2256,-5.2333,-5.2333,-5.2421,-5.2436,-5.2496,-5.2517,-5.2545,-5.2568,-5.2641,-5.2683,-5.2692,-5.2715,-5.2766,-5.2812,-5.2815,-5.2833,-5.2862,-5.286,-5.2733,-5.2715,-5.2698,-5.2678,-5.2867,-5.2867,-5.2989,-5.299,-5.2991]},{"header":{"parameterUnit":"m.s-1","parameterCategory":1,"la1":30.2991,"la2":30.254,"lo1":-89.0895,"lo2":-89.0444,"dy":0.0017,"dx":0.0017,"nx":28,"ny":28,"refTime":"2024-05-31T03:00:00:Z","depth":0,"parameterNumber":3,"parameterNumberName":"V-component_of_WINDS"},"data":[0,0,0,0,0,0,0,0,0,0,0,0,0,0,0,0,0,0,0,0,0,0,0,0,0,0,0,0,0,0,0,0,0,0,0,0,0,0,0,0,0,0,0,0,0,0,0,0,0,0,0,0,0,0,0,0,0,0,1.6043,1.6042,0,1.6027,1.6027,1.6026,1.6014,1.6014,1.6014,1.6014,1.5996,1.5995,1.5995,0,0,0,0,0,0,0,0,0,0,0,0,0,1.6062,1.6062,1.6043,1.6042,1.6042,1.6027,1.6027,1.6026,1.6014,1.6014,1.6014,1.6014,1.5996,1.5995,1.5995,0,0,0,0,0,0,0,0,0,0,0,0,0,1.6051,1.6062,1.6043,1.6034,1.6034,1.6027,1.6027,1.6026,1.6014,1.6014,1.6014,1.6014,1.5996,1.5995,1.5995,1.5995,0,0,1.5993,1.5993,0,0,0,0,0,0,0,0,1.6051,1.605,1.6036,1.6035,1.6034,1.6022,1.6027,1.6016,1.6014,1.6022,1.6014,1.6014,1.6005,1.6003,1.6001,1.5994,1.5993,1.5993,1.5993,1.5993,1.5992,0,0,0,0,0,0,0,1.6052,1.605,1.6036,1.6036,1.6034,1.6031,1.603,1.6025,1.6014,1.6021,1.602,1.6018,1.6004,1.6001,1.6,1.5993,1.5993,1.5993,1.5992,1.5992,1.5986,1.5986,0,0,0,0,0,0,1.6054,1.6051,1.6037,1.6036,1.6042,1.6031,1.6029,1.6026,1.6014,1.6012,1.6019,1.6018,1.6002,1.6001,1.5999,1.5999,1.5993,1.5992,1.5992,1.5986,1.5986,1.5986,0,0,0,0,0,0,1.6055,1.6053,1.6037,1.6043,1.6041,1.6031,1.6028,1.6026,1.6023,1.6012,1.601,1.6018,1.6002,1.6,1.5996,1.5998,1.5992,1.5991,1.5986,1.5986,1.5986,1.5997,0,0,0,0,0,0,1.6055,1.6053,1.6053,1.6043,1.6041,1.6035,1.6028,1.6026,1.6022,1.6021,1.6011,1.6009,1.6002,1.5997,1.5996,1.5997,1.5991,1.5985,1.5986,1.5986,1.5996,1.5998,1.5999,0,0,0,0,0,1.6056,1.6056,1.6053,1.6051,1.604,1.6035,1.6033,1.6026,1.6023,1.6022,1.6016,1.6009,1.5998,1.5997,1.5995,1.5996,1.5985,1.5986,1.5986,1.5996,1.5997,1.5999,0,0,0,0,0,0,1.6065,1.6055,1.6051,1.6048,1.6043,1.6033,1.6032,1.6027,1.6022,1.6021,1.6011,1.6009,1.6006,1.6001,1.6,1.5996,1.5991,1.5991,1.5999,1.6,1.6002,1.6002,1.599,0,0,0,0,0,1.6067,1.6064,1.6055,1.6053,1.605,1.6042,1.6039,1.6034,1.6027,1.6025,1.6018,1.6011,1.6007,1.6003,1.5998,1.5996,1.5994,1.5996,1.5997,1.5998,1.5998,1.5997,1.5998,1.5988,1.5988,1.5988,0,0,1.607,1.6064,1.6062,1.6055,1.605,1.6046,1.604,1.6036,1.6034,1.6024,1.602,1.6015,1.6007,1.6005,1.6003,1.6,1.6001,1.5999,1.6,1.5999,1.5998,1.5999,1.6,1.5988,1.5988,1.5988,0,0,1.6075,1.607,1.6068,1.6064,1.6057,1.6052,1.6051,1.6043,1.6039,1.6035,1.6028,1.6025,1.6017,1.6012,1.6008,1.6013,1.6007,1.6012,1.6017,1.6017,1.6017,1.6018,1.602,1.6021,1.6012,1.6012,1.6012,0,1.6079,1.6074,1.6068,1.6065,1.6062,1.6055,1.6053,1.6049,1.604,1.6038,1.6036,1.6026,1.602,1.6017,1.6018,1.6016,1.6015,1.6012,1.6018,1.6019,1.6019,1.6021,1.6021,1.6013,1.6013,1.6013,1.6012,0,1.6081,1.6078,1.6077,1.607,1.6067,1.6065,1.6058,1.6056,1.6052,1.6047,1.6043,1.6037,1.603,1.6029,1.6025,1.6025,1.6024,1.602,1.6014,1.6021,1.6022,1.6023,1.6013,1.6013,1.6013,1.6013,0,0,1.6089,1.608,1.6079,1.6077,1.6069,1.6067,1.6065,1.606,1.6058,1.6053,1.6051,1.6045,1.6042,1.6038,1.6033,1.6033,1.6037,1.6028,1.6028,1.603,1.6038,1.6041,1.6041,1.6034,1.6034,1.6034,1.6039,0,1.6092,1.6088,1.6082,1.608,1.6078,1.6071,1.607,1.6065,1.6061,1.6058,1.6053,1.6049,1.6045,1.6043,1.6042,1.6037,1.6038,1.6036,1.6031,1.6031,1.6033,1.6042,1.6044,1.6049,1.6039,1.6039,1.6039,0,1.6094,1.609,1.6088,1.6083,1.6081,1.608,1.6075,1.6073,1.6068,1.6065,1.6061,1.6056,1.6054,1.605,1.6047,1.6046,1.6044,1.6041,1.6041,1.6039,1.6035,1.604,1.605,1.6051,1.604,1.604,1.604,0,1.61,1.6095,1.6093,1.6091,1.6084,1.6083,1.608,1.6075,1.6073,1.6069,1.6068,1.6063,1.6061,1.6058,1.6052,1.605,1.605,1.6045,1.6047,1.6047,1.6046,1.6046,1.6055,1.6046,1.6046,1.6046,1.6046,0,1.6103,1.6102,1.6096,1.6094,1.6093,1.6088,1.6087,1.6083,1.6079,1.6077,1.6072,1.607,1.6063,1.606,1.6056,1.6054,1.6053,1.605,1.6049,1.605,1.605,1.6048,1.6047,1.6046,1.6046,1.6046,1.6046,0,1.6109,1.6105,1.6102,1.6097,1.6095,1.6095,1.609,1.6089,1.6085,1.6083,1.6082,1.6076,1.6073,1.6067,1.6062,1.6059,1.6058,1.6056,1.606,1.6059,1.6061,1.606,1.6068,1.6069,1.606,1.606,1.606,0,1.6111,1.6111,1.6105,1.6104,1.6102,1.6099,1.6097,1.6092,1.609,1.6086,1.6085,1.6082,1.6079,1.6074,1.6069,1.6066,1.6063,1.6066,1.6063,1.6064,1.6063,1.6063,1.6063,1.6067,1.6067,1.6067,1.6067,0,1.6116,1.6114,1.6111,1.6109,1.6107,1.6104,1.6101,1.61,1.6095,1.6093,1.609,1.6088,1.6084,1.6081,1.6077,1.6074,1.6069,1.6069,1.6069,1.607,1.6072,1.607,1.6061,1.6068,1.6068,1.6068,1.6068,1.6068,1.612,1.6119,1.6115,1.6113,1.6111,1.6108,1.6107,1.6104,1.6102,1.6098,1.6096,1.6093,1.6089,1.6084,1.6081,1.6079,1.6077,1.6077,1.6077,1.6077,1.6078,1.6073,1.6078,1.6078,1.6078,1.6078,1.6078,0,1.6123,1.6121,1.6119,1.6116,1.6115,1.6112,1.6109,1.6108,1.6106,1.6103,1.6101,1.6098,1.6095,1.6091,1.6088,1.6087,1.6085,1.6086,1.6086,1.6085,1.608,1.608,1.6088,1.6088,1.6088,1.6088,1.6088,1.6088,1.6125,1.6124,1.6122,1.612,1.6118,1.6116,1.6114,1.6112,1.611,1.6108,1.6106,1.6103,1.61,1.6097,1.6094,1.6093,1.6092,1.6094,1.6092,1.6087,1.6086,1.6085,1.6085,1.6094,1.6094,1.6097,1.6097,1.6097]}]]